JLY7840 SBGR-SBJP

Flight info

Callsign JLY7840
Flight time 2h 34m
Altitude 37000
Route VUMEV UZ14 AKPAS DCT ANBEX
Aircraft A320/M-SDE3FGHIRWY/LB1

Departure

Time 2026-05-04 23:45
Airport São Paulo/Guarulhos–Governor André Franco Montoro International Airport (SBGR)

Arrival

Time 2026-05-05 02:19
Airport Presidente Castro Pinto International Airport (SBJP)
Time Latitude Longitude Altitude Speed Heading
2026-05-04 23:45 -23.39944 -46.36308 4850 ft 269 kts 64°
2026-05-04 23:45 -23.38998 -46.34529 5589 ft 275 kts 57°
2026-05-04 23:45 -23.37967 -46.32750 6326 ft 281 kts 56°
2026-05-04 23:46 -23.36907 -46.30935 7023 ft 287 kts 56°
2026-05-04 23:46 -23.35825 -46.29082 7747 ft 292 kts 56°
2026-05-04 23:46 -23.34734 -46.27208 8483 ft 295 kts 57°
2026-05-04 23:46 -23.33651 -46.25341 9217 ft 298 kts 57°
2026-05-04 23:47 -23.32538 -46.23421 9938 ft 302 kts 57°
2026-05-04 23:47 -23.31409 -46.21474 10519 ft 310 kts 57°
2026-05-04 23:47 -23.30215 -46.19418 10677 ft 333 kts 57°
2026-05-04 23:47 -23.28935 -46.17216 10797 ft 355 kts 57°
2026-05-04 23:48 -23.27594 -46.14908 11184 ft 365 kts 57°
2026-05-04 23:48 -23.26227 -46.12555 11749 ft 371 kts 57°
2026-05-04 23:48 -23.24841 -46.10172 12345 ft 375 kts 57°
2026-05-04 23:48 -23.23435 -46.07770 12945 ft 379 kts 55°
2026-05-04 23:49 -23.21740 -46.05557 13523 ft 382 kts 43°
2026-05-04 23:49 -23.19687 -46.03777 14095 ft 385 kts 31°
2026-05-04 23:49 -23.17293 -46.02463 14604 ft 387 kts 19°
2026-05-04 23:49 -23.14752 -46.01488 15123 ft 389 kts 17°
2026-05-04 23:50 -23.12151 -46.00655 15652 ft 390 kts
2026-05-04 23:50 -23.09457 -46.00261 16173 ft 392 kts
2026-05-04 23:50 -23.06741 -45.99933 16702 ft 394 kts
2026-05-04 23:50 -23.03987 -45.99600 17256 ft 397 kts
2026-05-04 23:51 -23.01247 -45.99269 17792 ft 400 kts
2026-05-04 23:51 -22.98473 -45.98934 18325 ft 403 kts
2026-05-04 23:51 -22.95674 -45.98594 18798 ft 407 kts
2026-05-04 23:51 -22.92849 -45.98248 19272 ft 411 kts
2026-05-04 23:52 -22.90020 -45.97666 19756 ft 418 kts 13°
2026-05-04 23:52 -22.87295 -45.96511 20237 ft 425 kts 24°
2026-05-04 23:52 -22.84760 -45.94805 20712 ft 432 kts 32°
2026-05-04 23:52 -22.82287 -45.92938 21166 ft 435 kts 32°
2026-05-04 23:53 -22.79794 -45.91052 21602 ft 439 kts 32°
2026-05-04 23:53 -22.77286 -45.89151 22041 ft 442 kts 32°
2026-05-04 23:53 -22.74791 -45.87262 22459 ft 445 kts 32°
2026-05-04 23:53 -22.72244 -45.85343 22879 ft 448 kts 32°
2026-05-04 23:54 -22.69673 -45.83409 23275 ft 451 kts 32°
2026-05-04 23:54 -22.67084 -45.81467 23662 ft 454 kts 32°
2026-05-04 23:54 -22.64480 -45.79515 24015 ft 457 kts 32°
2026-05-04 23:54 -22.61860 -45.77551 24341 ft 460 kts 32°
2026-05-04 23:55 -22.59222 -45.75572 24653 ft 462 kts 32°
2026-05-04 23:55 -22.56575 -45.73587 24967 ft 465 kts 32°
2026-05-04 23:55 -22.51232 -45.69578 25586 ft 470 kts 32°
2026-05-04 23:56 -22.48533 -45.67553 25888 ft 473 kts 32°
2026-05-04 23:56 -22.45821 -45.65521 26191 ft 476 kts 32°
2026-05-04 23:56 -22.43096 -45.63480 26483 ft 478 kts 32°
2026-05-04 23:56 -22.40355 -45.61429 26792 ft 481 kts 31°
2026-05-04 23:57 -22.37593 -45.59363 27094 ft 484 kts 31°
2026-05-04 23:57 -22.34858 -45.57316 27391 ft 486 kts 31°
2026-05-04 23:57 -22.32029 -45.55200 27684 ft 489 kts 31°
2026-05-04 23:57 -22.29231 -45.53107 27971 ft 491 kts 31°
2026-05-04 23:58 -22.26417 -45.51004 28367 ft 491 kts 31°
2026-05-04 23:58 -22.23646 -45.48937 28791 ft 491 kts 31°
2026-05-04 23:58 -22.20832 -45.46842 29206 ft 491 kts 31°
2026-05-04 23:58 -22.18020 -45.44751 29598 ft 491 kts 31°
2026-05-04 23:59 -22.15171 -45.42631 30007 ft 491 kts 31°
2026-05-04 23:59 -22.12392 -45.40561 30394 ft 492 kts 31°
2026-05-04 23:59 -22.09578 -45.38464 30755 ft 492 kts 31°
2026-05-04 23:59 -22.06766 -45.36368 31126 ft 491 kts 31°
2026-05-05 00:00 -22.03957 -45.34275 31504 ft 490 kts 31°
2026-05-05 00:00 -22.03016 -45.33558 31633 ft 490 kts 32°
2026-05-05 00:00 -21.98487 -45.29880 32264 ft 491 kts 34°
2026-05-05 00:00 -21.95823 -45.27584 32637 ft 490 kts 35°
2026-05-05 00:01 -21.93182 -45.25274 33022 ft 490 kts 35°
2026-05-05 00:01 -21.90535 -45.22962 33417 ft 489 kts 35°
2026-05-05 00:01 -21.87925 -45.20709 33815 ft 488 kts 34°
2026-05-05 00:01 -21.85267 -45.18449 34189 ft 486 kts 34°
2026-05-05 00:02 -21.82600 -45.16209 34518 ft 485 kts 33°
2026-05-05 00:02 -21.79933 -45.13985 34809 ft 485 kts 33°
2026-05-05 00:02 -21.77273 -45.11765 35094 ft 484 kts 33°
2026-05-05 00:02 -21.74613 -45.09538 35368 ft 484 kts 33°
2026-05-05 00:03 -21.71957 -45.07309 35624 ft 484 kts 34°
2026-05-05 00:03 -21.69302 -45.05076 35865 ft 484 kts 34°
2026-05-05 00:03 -21.66685 -45.02872 36118 ft 484 kts 34°
2026-05-05 00:03 -21.64034 -45.00643 36365 ft 484 kts 33°
2026-05-05 00:04 -21.61380 -44.98417 36615 ft 484 kts 33°
2026-05-05 00:04 -21.58723 -44.96190 36873 ft 484 kts 33°
2026-05-05 00:04 -21.56070 -44.93971 37093 ft 483 kts 33°
2026-05-05 00:04 -21.53416 -44.91753 37225 ft 485 kts 33°
2026-05-05 00:05 -21.50738 -44.89515 37248 ft 490 kts 33°
2026-05-05 00:05 -21.45304 -44.84969 37248 ft 500 kts 33°
2026-05-05 00:06 -21.39765 -44.80341 37251 ft 509 kts 33°
2026-05-05 00:06 -21.34159 -44.75660 37248 ft 511 kts 33°
2026-05-05 00:07 -21.28553 -44.70969 37248 ft 511 kts 33°
2026-05-05 00:07 -21.22973 -44.66319 37248 ft 511 kts 33°
2026-05-05 00:08 -21.17357 -44.61639 37255 ft 512 kts 33°
2026-05-05 00:08 -21.11739 -44.56954 37260 ft 512 kts 33°
2026-05-05 00:09 -21.06119 -44.52278 37274 ft 512 kts 33°
2026-05-05 00:09 -21.00522 -44.47635 37266 ft 512 kts 33°
2026-05-05 00:10 -20.94895 -44.42966 37282 ft 512 kts 33°
2026-05-05 00:10 -20.89262 -44.38298 37272 ft 512 kts 33°
2026-05-05 00:11 -20.83632 -44.33636 37273 ft 512 kts 33°
2026-05-05 00:11 -20.77998 -44.28980 37277 ft 512 kts 33°
2026-05-05 00:12 -20.72367 -44.24321 37279 ft 512 kts 33°
2026-05-05 00:12 -20.66774 -44.19705 37281 ft 512 kts 33°
2026-05-05 00:13 -20.61147 -44.15058 37279 ft 512 kts 33°
2026-05-05 00:13 -20.55558 -44.10349 37278 ft 512 kts 34°
2026-05-05 00:14 -20.49984 -44.05619 37279 ft 511 kts 34°
2026-05-05 00:14 -20.44400 -44.01005 37278 ft 511 kts 33°
2026-05-05 00:15 -20.38748 -43.96425 37283 ft 511 kts 32°
2026-05-05 00:15 -20.33093 -43.91839 37279 ft 510 kts 33°
2026-05-05 00:16 -20.27462 -43.87236 37276 ft 510 kts 33°
2026-05-05 00:16 -20.21830 -43.82625 37274 ft 511 kts 33°
2026-05-05 00:17 -20.16232 -43.78062 37284 ft 510 kts 33°
2026-05-05 00:17 -20.10590 -43.73475 37281 ft 510 kts 33°
2026-05-05 00:18 -20.04955 -43.68889 37283 ft 510 kts 33°
2026-05-05 00:18 -19.99328 -43.64302 37278 ft 510 kts 33°
2026-05-05 00:19 -19.93693 -43.59717 37287 ft 510 kts 33°
2026-05-05 00:19 -19.88085 -43.55177 37274 ft 510 kts 33°
2026-05-05 00:20 -19.82452 -43.50602 37276 ft 510 kts 33°
2026-05-05 00:20 -19.76820 -43.46020 37275 ft 510 kts 33°
2026-05-05 00:21 -19.71190 -43.41444 37273 ft 510 kts 33°
2026-05-05 00:21 -19.65560 -43.36877 37273 ft 509 kts 33°
2026-05-05 00:22 -19.59966 -43.32343 37267 ft 509 kts 33°
2026-05-05 00:22 -19.54330 -43.27784 37267 ft 509 kts 33°
2026-05-05 00:23 -19.48699 -43.23234 37265 ft 509 kts 33°
2026-05-05 00:23 -19.43072 -43.18680 37262 ft 509 kts 33°
2026-05-05 00:24 -19.37441 -43.14136 37262 ft 509 kts 33°
2026-05-05 00:24 -19.31856 -43.09622 37260 ft 509 kts 33°
2026-05-05 00:25 -19.26234 -43.05076 37261 ft 508 kts 33°
2026-05-05 00:25 -19.20606 -43.00547 37259 ft 508 kts 33°
2026-05-05 00:26 -19.14975 -42.96019 37257 ft 508 kts 33°
2026-05-05 00:26 -19.09388 -42.91529 37260 ft 508 kts 33°
2026-05-05 00:27 -19.03765 -42.87012 37261 ft 508 kts 33°
2026-05-05 00:27 -18.98141 -42.82499 37261 ft 507 kts 33°
2026-05-05 00:28 -18.92520 -42.77994 37262 ft 507 kts 33°
2026-05-05 00:28 -18.86905 -42.73491 37257 ft 507 kts 33°
2026-05-05 00:29 -18.81332 -42.69024 37260 ft 506 kts 33°
2026-05-05 00:29 -18.75715 -42.64532 37260 ft 506 kts 33°
2026-05-05 00:30 -18.70098 -42.60055 37261 ft 506 kts 33°
2026-05-05 00:30 -18.64484 -42.55572 37254 ft 506 kts 33°
2026-05-05 00:31 -18.58912 -42.51114 37254 ft 506 kts 33°
2026-05-05 00:31 -18.53301 -42.46644 37253 ft 506 kts 33°
2026-05-05 00:32 -18.47689 -42.42184 37248 ft 505 kts 33°
2026-05-05 00:32 -18.42083 -42.37720 37250 ft 505 kts 33°
2026-05-05 00:33 -18.36482 -42.33268 37249 ft 504 kts 33°
2026-05-05 00:33 -18.30925 -42.28848 37251 ft 504 kts 33°
2026-05-05 00:34 -18.25326 -42.24397 37248 ft 504 kts 33°
2026-05-05 00:34 -18.19732 -42.19965 37246 ft 503 kts 33°
2026-05-05 00:35 -18.14143 -42.15538 37251 ft 503 kts 33°
2026-05-05 00:35 -18.08590 -42.11143 37248 ft 503 kts 33°
2026-05-05 00:36 -18.03011 -42.06713 37251 ft 502 kts 33°
2026-05-05 00:36 -17.97428 -42.02298 37254 ft 502 kts 33°
2026-05-05 00:37 -17.91837 -41.97899 37258 ft 502 kts 33°
2026-05-05 00:37 -17.86260 -41.93492 37265 ft 502 kts 33°
2026-05-05 00:38 -17.80674 -41.89088 37261 ft 502 kts 33°
2026-05-05 00:38 -17.75135 -41.84724 37267 ft 501 kts 33°
2026-05-05 00:39 -17.69559 -41.80336 37272 ft 501 kts 33°
2026-05-05 00:39 -17.63979 -41.75952 37268 ft 501 kts 33°
2026-05-05 00:40 -17.58410 -41.71571 37266 ft 500 kts 33°
2026-05-05 00:40 -17.52883 -41.67224 37271 ft 500 kts 33°
2026-05-05 00:41 -17.47311 -41.62851 37265 ft 500 kts 33°
2026-05-05 00:41 -17.41740 -41.58480 37267 ft 500 kts 33°
2026-05-05 00:42 -17.36167 -41.54116 37261 ft 500 kts 33°
2026-05-05 00:42 -17.30637 -41.49790 37273 ft 500 kts 33°
2026-05-05 00:43 -17.25070 -41.45434 37259 ft 499 kts 33°
2026-05-05 00:43 -17.19506 -41.41075 37252 ft 500 kts 33°
2026-05-05 00:44 -17.13944 -41.36728 37261 ft 499 kts 33°
2026-05-05 00:44 -17.08416 -41.32413 37263 ft 499 kts 33°
2026-05-05 00:45 -17.02858 -41.28074 37259 ft 499 kts 33°
2026-05-05 00:45 -16.97289 -41.23742 37257 ft 499 kts 32°
2026-05-05 00:46 -16.91722 -41.19409 37262 ft 499 kts 33°
2026-05-05 00:46 -16.86168 -41.15069 37259 ft 499 kts 33°
2026-05-05 00:47 -16.80639 -41.10759 37245 ft 499 kts 32°
2026-05-05 00:47 -16.75073 -41.06434 37251 ft 499 kts 32°
2026-05-05 00:48 -16.69495 -41.02116 37259 ft 499 kts 32°
2026-05-05 00:48 -16.63919 -40.97802 37250 ft 499 kts 32°
2026-05-05 00:49 -16.58392 -40.93516 37254 ft 499 kts 33°
2026-05-05 00:49 -16.52823 -40.89194 37249 ft 499 kts 33°
2026-05-05 00:50 -16.47264 -40.84874 37246 ft 498 kts 33°
2026-05-05 00:50 -16.41724 -40.80596 37242 ft 498 kts 32°
2026-05-05 00:51 -16.36150 -40.76297 37241 ft 498 kts 33°
2026-05-05 00:51 -16.30583 -40.71992 37239 ft 499 kts 33°
2026-05-05 00:52 -16.25019 -40.67689 37238 ft 498 kts 33°
2026-05-05 00:52 -16.19448 -40.63394 37233 ft 498 kts 32°
2026-05-05 00:53 -16.13918 -40.59136 37231 ft 498 kts 33°
2026-05-05 00:53 -16.08352 -40.54840 37229 ft 498 kts 33°
2026-05-05 00:54 -16.02786 -40.50555 37226 ft 498 kts 33°
2026-05-05 00:54 -15.97218 -40.46272 37228 ft 498 kts 33°
2026-05-05 00:55 -15.91691 -40.42024 37226 ft 497 kts 33°
2026-05-05 00:55 -15.86130 -40.37757 37224 ft 497 kts 33°
2026-05-05 00:56 -15.80566 -40.33493 37223 ft 497 kts 33°
2026-05-05 00:56 -15.75040 -40.29264 37220 ft 497 kts 33°
2026-05-05 00:57 -15.69483 -40.25002 37219 ft 497 kts 33°
2026-05-05 00:57 -15.63924 -40.20746 37216 ft 497 kts 33°
2026-05-05 00:58 -15.58362 -40.16500 37214 ft 497 kts 33°
2026-05-05 00:58 -15.52835 -40.12284 37213 ft 497 kts 33°
2026-05-05 00:59 -15.47260 -40.08046 37207 ft 497 kts 33°
2026-05-05 00:59 -15.41693 -40.03811 37210 ft 496 kts 33°
2026-05-05 01:00 -15.36129 -39.99573 37210 ft 496 kts 33°
2026-05-05 01:00 -15.30564 -39.95334 37211 ft 496 kts 33°
2026-05-05 01:01 -15.25032 -39.91131 37207 ft 496 kts 33°
2026-05-05 01:01 -15.19465 -39.86899 37207 ft 496 kts 33°
2026-05-05 01:02 -15.13902 -39.82672 37202 ft 496 kts 33°
2026-05-05 01:02 -15.08325 -39.78449 37203 ft 496 kts 33°
2026-05-05 01:03 -15.02761 -39.74232 37212 ft 496 kts 33°
2026-05-05 01:03 -14.97228 -39.70041 37200 ft 496 kts 33°
2026-05-05 01:04 -14.91650 -39.65832 37195 ft 496 kts 33°
2026-05-05 01:04 -14.83280 -39.59544 37193 ft 496 kts 33°
2026-05-05 01:05 -14.77738 -39.55382 37190 ft 496 kts 33°
2026-05-05 01:05 -14.72167 -39.51191 37187 ft 495 kts 33°
2026-05-05 01:06 -14.66594 -39.46999 37181 ft 495 kts 33°
2026-05-05 01:06 -14.61021 -39.42815 37179 ft 496 kts 33°
2026-05-05 01:07 -14.55444 -39.38627 37182 ft 495 kts 33°
2026-05-05 01:07 -14.49906 -39.34483 37181 ft 495 kts 33°
2026-05-05 01:08 -14.44315 -39.30295 37178 ft 495 kts 33°
2026-05-05 01:08 -14.38742 -39.26118 37167 ft 495 kts 33°
2026-05-05 01:09 -14.33206 -39.21967 37169 ft 495 kts 33°
2026-05-05 01:09 -14.27632 -39.17794 37170 ft 495 kts 33°
2026-05-05 01:10 -14.22054 -39.13630 37166 ft 495 kts 33°
2026-05-05 01:10 -14.16469 -39.09470 37165 ft 495 kts 33°
2026-05-05 01:11 -14.11831 -39.06006 37162 ft 495 kts 33°
2026-05-05 01:11 -14.05349 -39.01162 37163 ft 495 kts 33°
2026-05-05 01:12 -13.99767 -38.97001 37158 ft 495 kts 33°
2026-05-05 01:12 -13.94180 -38.92842 37151 ft 495 kts 33°
2026-05-05 01:13 -13.89535 -38.89387 37153 ft 496 kts 33°
2026-05-05 01:13 -13.83044 -38.84557 37153 ft 496 kts 33°
2026-05-05 01:14 -13.77454 -38.80402 37149 ft 496 kts 33°
2026-05-05 01:14 -13.71866 -38.76246 37149 ft 496 kts 33°
2026-05-05 01:15 -13.66274 -38.72093 37147 ft 496 kts 33°
2026-05-05 01:15 -13.60720 -38.67969 37145 ft 496 kts 33°
2026-05-05 01:16 -13.55127 -38.63814 37142 ft 496 kts 33°
2026-05-05 01:16 -13.50480 -38.60362 37142 ft 496 kts 33°
2026-05-05 01:17 -13.44883 -38.56216 37140 ft 496 kts 33°
2026-05-05 01:17 -13.39286 -38.52079 37139 ft 496 kts 34°
2026-05-05 01:18 -13.32782 -38.47271 37139 ft 496 kts 33°
2026-05-05 01:18 -13.28097 -38.43800 37140 ft 496 kts 34°
2026-05-05 01:19 -13.23898 -38.40679 37136 ft 495 kts 34°
2026-05-05 01:19 -13.18709 -38.36841 37141 ft 495 kts 34°
2026-05-05 01:20 -13.13114 -38.32714 37135 ft 495 kts 34°
2026-05-05 01:20 -13.07530 -38.28593 37132 ft 495 kts 34°
2026-05-05 01:21 -13.01978 -38.24499 37134 ft 494 kts 34°
2026-05-05 01:21 -12.96396 -38.20381 37134 ft 494 kts 34°
2026-05-05 01:22 -12.90814 -38.16273 37135 ft 494 kts 34°
2026-05-05 01:22 -12.85232 -38.12164 37135 ft 494 kts 34°
2026-05-05 01:23 -12.79659 -38.08054 37138 ft 493 kts 34°
2026-05-05 01:23 -12.74128 -38.03982 37137 ft 493 kts 34°
2026-05-05 01:24 -12.68551 -37.99886 37135 ft 493 kts 34°
2026-05-05 01:24 -12.62987 -37.95803 37135 ft 492 kts 34°
2026-05-05 01:25 -12.57423 -37.91714 37138 ft 492 kts 34°
2026-05-05 01:25 -12.51870 -37.87632 37137 ft 492 kts 34°
2026-05-05 01:26 -12.46345 -37.83582 37136 ft 491 kts 34°
2026-05-05 01:26 -12.40797 -37.79511 37134 ft 491 kts 34°
2026-05-05 01:27 -12.35246 -37.75446 37132 ft 490 kts 34°
2026-05-05 01:27 -12.29699 -37.71385 37131 ft 490 kts 34°
2026-05-05 01:28 -12.24191 -37.67354 37133 ft 490 kts 34°
2026-05-05 01:28 -12.18651 -37.63295 37134 ft 490 kts 34°
2026-05-05 01:29 -12.13112 -37.59244 37132 ft 489 kts 34°
2026-05-05 01:29 -12.07575 -37.55202 37131 ft 489 kts 34°
2026-05-05 01:30 -12.02038 -37.51161 37131 ft 489 kts 34°
2026-05-05 01:30 -11.96541 -37.47144 37128 ft 489 kts 34°
2026-05-05 01:31 -11.90919 -37.43251 37130 ft 487 kts 28°
2026-05-05 01:31 -11.85049 -37.39786 37130 ft 487 kts 28°
2026-05-05 01:32 -11.79179 -37.36327 37128 ft 487 kts 28°
2026-05-05 01:32 -11.73314 -37.32868 37128 ft 487 kts 29°
2026-05-05 01:33 -11.67444 -37.29401 37128 ft 487 kts 29°
2026-05-05 01:33 -11.61616 -37.25962 37126 ft 487 kts 29°
2026-05-05 01:34 -11.55752 -37.22503 37123 ft 487 kts 28°
2026-05-05 01:34 -11.49885 -37.19056 37122 ft 487 kts 28°
2026-05-05 01:35 -11.44015 -37.15616 37122 ft 487 kts 28°
2026-05-05 01:35 -11.38193 -37.12199 37121 ft 486 kts 29°
2026-05-05 01:36 -11.32438 -37.08806 37119 ft 486 kts 29°
2026-05-05 01:36 -11.26654 -37.05408 37113 ft 486 kts 28°
2026-05-05 01:37 -11.20792 -37.01966 37111 ft 486 kts 28°
2026-05-05 01:37 -11.14938 -36.98524 37111 ft 486 kts 28°
2026-05-05 01:38 -11.09114 -36.95113 37108 ft 486 kts 28°
2026-05-05 01:38 -11.03256 -36.91677 37107 ft 486 kts 28°
2026-05-05 01:39 -10.97396 -36.88238 37106 ft 486 kts 28°
2026-05-05 01:39 -10.91542 -36.84810 37111 ft 486 kts 28°
2026-05-05 01:40 -10.85718 -36.81405 37109 ft 486 kts 28°
2026-05-05 01:40 -10.79861 -36.77981 37111 ft 485 kts 28°
2026-05-05 01:41 -10.74007 -36.74553 37114 ft 485 kts 28°
2026-05-05 01:41 -10.68158 -36.71125 37111 ft 485 kts 28°
2026-05-05 01:42 -10.62345 -36.67728 37110 ft 485 kts 28°
2026-05-05 01:42 -10.56501 -36.64313 37110 ft 485 kts 28°
2026-05-05 01:43 -10.50656 -36.60897 37114 ft 485 kts 28°
2026-05-05 01:43 -10.44814 -36.57488 37112 ft 484 kts 28°
2026-05-05 01:44 -10.38961 -36.54078 37110 ft 484 kts 28°
2026-05-05 01:44 -10.33121 -36.50672 37111 ft 484 kts 28°
2026-05-05 01:45 -10.27285 -36.47264 37109 ft 484 kts 28°
2026-05-05 01:45 -10.21453 -36.43862 37110 ft 483 kts 28°
2026-05-05 01:46 -10.15621 -36.40467 37108 ft 483 kts 28°
2026-05-05 01:46 -10.09787 -36.37079 37107 ft 483 kts 28°
2026-05-05 01:47 -10.03962 -36.33686 37111 ft 483 kts 28°
2026-05-05 01:47 -9.98140 -36.30295 37113 ft 482 kts 28°
2026-05-05 01:48 -9.92315 -36.26905 37114 ft 482 kts 28°
2026-05-05 01:48 -9.86491 -36.23527 37114 ft 482 kts 28°
2026-05-05 01:49 -9.80670 -36.20150 37113 ft 482 kts 28°
2026-05-05 01:49 -9.74856 -36.16775 37119 ft 482 kts 28°
2026-05-05 01:50 -9.69082 -36.13418 37117 ft 481 kts 28°
2026-05-05 01:50 -9.63274 -36.10040 37117 ft 481 kts 28°
2026-05-05 01:51 -9.57463 -36.06670 37117 ft 481 kts 28°
2026-05-05 01:51 -9.51654 -36.03310 37111 ft 481 kts 28°
2026-05-05 01:52 -9.45844 -35.99945 37112 ft 481 kts 28°
2026-05-05 01:52 -9.40039 -35.96574 37109 ft 481 kts 28°
2026-05-05 01:53 -9.34240 -35.93209 37111 ft 481 kts 28°
2026-05-05 01:53 -9.28432 -35.89853 37114 ft 481 kts 28°
2026-05-05 01:54 -9.22662 -35.86514 37119 ft 480 kts 28°
2026-05-05 01:54 -9.16858 -35.83161 37123 ft 480 kts 28°
2026-05-05 01:55 -9.11017 -35.79777 37119 ft 480 kts 28°
2026-05-05 01:55 -9.05252 -35.76441 37116 ft 480 kts 28°
2026-05-05 01:56 -8.99174 -35.73640 37120 ft 476 kts 14°
2026-05-05 01:56 -8.92886 -35.71689 37118 ft 476 kts 15°
2026-05-05 01:57 -8.86551 -35.69729 37113 ft 476 kts 15°
2026-05-05 01:57 -8.80222 -35.67759 37117 ft 476 kts 15°
2026-05-05 01:58 -8.73890 -35.65792 37115 ft 476 kts 15°
2026-05-05 01:58 -8.67606 -35.63831 37116 ft 476 kts 15°
2026-05-05 01:59 -8.61274 -35.61859 37115 ft 476 kts 15°
2026-05-05 01:59 -8.55002 -35.59914 37087 ft 462 kts 15°
2026-05-05 02:00 -8.48891 -35.58013 37094 ft 458 kts 15°
2026-05-05 02:00 -8.42801 -35.56123 37092 ft 458 kts 14°
2026-05-05 02:01 -8.36712 -35.54238 37088 ft 457 kts 14°
2026-05-05 02:01 -8.30626 -35.52355 36033 ft 460 kts 15°
2026-05-05 02:02 -8.27518 -35.51394 34408 ft 473 kts 15°
2026-05-05 02:02 -8.24336 -35.50411 32719 ft 482 kts 15°
2026-05-05 02:02 -8.21153 -35.49425 31117 ft 486 kts 16°
2026-05-05 02:02 -8.17917 -35.48420 29566 ft 486 kts 16°
2026-05-05 02:03 -8.14709 -35.47421 28178 ft 479 kts 17°
2026-05-05 02:03 -8.11552 -35.46439 26959 ft 470 kts 17°
2026-05-05 02:03 -8.08458 -35.45478 25823 ft 461 kts 18°
2026-05-05 02:03 -8.05423 -35.44535 24723 ft 452 kts 18°
2026-05-05 02:04 -8.02438 -35.43611 23668 ft 445 kts 18°
2026-05-05 02:04 -7.99516 -35.42709 22741 ft 432 kts 18°
2026-05-05 02:04 -7.96718 -35.41846 22303 ft 412 kts 18°
2026-05-05 02:04 -7.94025 -35.41017 21777 ft 410 kts 18°
2026-05-05 02:05 -7.91306 -35.40177 21268 ft 407 kts 18°
2026-05-05 02:05 -7.88603 -35.39341 20757 ft 406 kts 18°
2026-05-05 02:05 -7.85910 -35.38507 20236 ft 405 kts 18°
2026-05-05 02:05 -7.83223 -35.37673 19723 ft 403 kts 18°
2026-05-05 02:06 -7.80544 -35.36840 19193 ft 402 kts 18°
2026-05-05 02:06 -7.77875 -35.36012 18664 ft 401 kts 18°
2026-05-05 02:06 -7.75209 -35.35188 18067 ft 401 kts 19°
2026-05-05 02:06 -7.72550 -35.34365 17503 ft 398 kts 19°
2026-05-05 02:07 -7.69947 -35.33560 16947 ft 395 kts 18°
2026-05-05 02:07 -7.67325 -35.32749 16376 ft 393 kts 18°
2026-05-05 02:07 -7.64719 -35.31946 15808 ft 390 kts 18°
2026-05-05 02:07 -7.62129 -35.31148 15232 ft 388 kts 18°
2026-05-05 02:08 -7.59556 -35.30353 14657 ft 386 kts 18°
2026-05-05 02:08 -7.57002 -35.29562 14085 ft 383 kts 19°
2026-05-05 02:08 -7.54453 -35.28774 13469 ft 381 kts 18°
2026-05-05 02:08 -7.51936 -35.27996 12887 ft 377 kts 19°
2026-05-05 02:09 -7.49438 -35.27224 12317 ft 373 kts 19°
2026-05-05 02:09 -7.46972 -35.26462 11766 ft 369 kts 19°
2026-05-05 02:09 -7.44525 -35.25708 11199 ft 366 kts 19°
2026-05-05 02:09 -7.42135 -35.24974 10667 ft 363 kts 19°
2026-05-05 02:10 -7.39765 -35.24245 10521 ft 348 kts 19°
2026-05-05 02:10 -7.37540 -35.23560 10398 ft 334 kts 19°
2026-05-05 02:10 -7.35361 -35.22885 10280 ft 322 kts 19°
2026-05-05 02:10 -7.33258 -35.22233 10164 ft 310 kts 19°
2026-05-05 02:11 -7.31226 -35.21602 10011 ft 302 kts 20°
2026-05-05 02:11 -7.29224 -35.20982 9548 ft 304 kts 20°
2026-05-05 02:11 -7.27217 -35.20362 9274 ft 299 kts 19°
2026-05-05 02:11 -7.25200 -35.19742 8568 ft 310 kts 19°
2026-05-05 02:12 -7.23097 -35.19094 7850 ft 321 kts 19°
2026-05-05 02:12 -7.18831 -35.17779 6730 ft 313 kts 19°
2026-05-05 02:12 -7.16799 -35.17155 6190 ft 306 kts 19°
2026-05-05 02:13 -7.14781 -35.16537 5667 ft 299 kts 19°
2026-05-05 02:13 -7.12814 -35.15933 5152 ft 293 kts 20°
2026-05-05 02:13 -7.10881 -35.15337 4650 ft 287 kts 21°
2026-05-05 02:13 -7.09113 -35.14505 4121 ft 277 kts 38°
2026-05-05 02:14 -7.07679 -35.13257 3605 ft 270 kts 50°
2026-05-05 02:14 -7.06370 -35.11922 3095 ft 266 kts 50°
2026-05-05 02:14 -7.05075 -35.10611 2616 ft 262 kts 50°
2026-05-05 02:14 -7.03927 -35.09331 2498 ft 227 kts 65°
2026-05-05 02:15 -7.03453 -35.07966 2437 ft 199 kts 91°
2026-05-05 02:15 -7.03594 -35.06699 2370 ft 168 kts 114°
2026-05-05 02:15 -7.04120 -35.05750 2273 ft 145 kts 134°
2026-05-05 02:15 -7.04811 -35.05048 2206 ft 139 kts 139°
2026-05-05 02:16 -7.05493 -35.04369 2143 ft 137 kts 139°
2026-05-05 02:16 -7.06168 -35.03696 2083 ft 137 kts 139°
2026-05-05 02:16 -7.06844 -35.03024 2020 ft 136 kts 139°
2026-05-05 02:16 -7.07516 -35.02356 1958 ft 136 kts 139°
2026-05-05 02:17 -7.08182 -35.01693 1905 ft 134 kts 139°
2026-05-05 02:17 -7.08851 -35.01028 1718 ft 135 kts 139°
2026-05-05 02:17 -7.09510 -35.00371 1524 ft 135 kts 138°
2026-05-05 02:17 -7.10172 -34.99712 1341 ft 134 kts 138°
2026-05-05 02:18 -7.10834 -34.99054 1154 ft 134 kts 138°
2026-05-05 02:18 -7.11498 -34.98394 981 ft 135 kts 137°
2026-05-05 02:18 -7.12167 -34.97730 786 ft 135 kts 136°
2026-05-05 02:18 -7.12837 -34.97067 589 ft 135 kts 137°
2026-05-05 02:19 -7.13505 -34.96404 386 ft 134 kts 135°
2026-05-05 02:19 -7.14164 -34.95750 234 ft 128 kts 136°
2026-05-05 02:19 -7.14679 -34.95242 221 ft 65 kts 135°
2026-05-05 02:19 -7.14810 -34.95091 223 ft 17 kts 100°
2026-05-05 02:20 -7.14767 -34.95043 222 ft 8 kts 37°
2026-05-05 02:20 -7.14736 -34.95014 222 ft 4 kts 45°
2026-05-05 02:20 -7.14728 -34.95006 222 ft 3 kts 45°
2026-05-05 02:20 -7.14703 -34.94994 221 ft 5 kts
2026-05-05 02:21 -7.14674 -34.95010 222 ft 2 kts 315°
2026-05-05 02:21 -7.14659 -34.95026 221 ft 4 kts 315°
2026-05-05 02:21 -7.14628 -34.95052 221 ft 7 kts 333°
2026-05-05 02:21 -7.14600 -34.95051 221 ft 2 kts 17°
2026-05-05 02:22 -7.14594 -34.95038 223 ft 3 kts 77°
2026-05-05 02:22 -7.14600 -34.95015 221 ft 3 kts 107°
2026-05-05 02:22 -7.14607 -34.94997 221 ft 2 kts 114°
2026-05-05 02:22 -7.14610 -34.94991 221 ft 1 kts 115°
2026-05-05 02:37 -7.14609 -34.94991 221 ft 0 kts 115°
2026-05-05 02:49 -7.14609 -34.94992 221 ft 0 kts 115°